Volver al catálogo

FENGYUN 1C DEB

ActivoSSO
NORAD 31313·DEBRIS·🇨🇳 China

Lanzado May 10, 1999 desde Taiyuan Satellite Launch Center

Loading…

Próximos Pases (próximas 24 horas)

TLE

ActualizadoSource: Space-Track

Época: Sep 12, 2026, 05:15 UTC

1 31313U 99025BPR 26255.21881575  .00000315  00000-0  15999-3 0  9998
2 31313  99.0011 170.1306 0045634 117.2151 243.3687 14.22590223  9250

Sigue FENGYUN 1C DEB en tiempo real con AllMySat

Download on the App Store